Renton, WA
on Tuesday, February 5, 2013

Tuesday
Previous Day Next Day
Daily Summary
 ActualAverage (KSEA)Record (KSEA)
Temperature
Mean Temperature °F 43°F  
Max Temperature 50°F 49°F 62°F (1987)
Min Temperature 44°F 37°F 14°F (1989)
Degree Days
Heating Degree Days 18 22  
Month to date heating degree days 110  
Since 1 July heating degree days 2759  
Cooling Degree Days 0 0  
Month to date cooling degree days 0  
Year to date cooling degree days 0  
Moisture
Dew Point 41°F   
Average Humidity 83    
Maximum Humidity 93    
Minimum Humidity 71    
Precipitation
Precipitation 0.19 in 0.14 in 0.96 in (1961)
Month to date precipitation 0.67  
Year to date precipitation 6.24  
Snow
Snow 0.00 in in 1.70 in (1949)
Month to date snowfall  
Since 1 July snowfall  
Snow Depth in   
Wind
Wind Speed 6 mph   
Max Wind Speed 13 mph   
Max Gust Speed 20 mph   
Visibility 9 miles   
Events Rain   

Key: T is trace of precipitation, MM is missing value
Source: NWS Daily Summary
Time(PST)TemperatureDew PointHumidity Pressure Visibility Wind DirectionWind SpeedGust SpeedPrecipitationEvents Conditions
12:10 AM 44.6°F 42.8°F 93% 29.91 in 9.0 miles Variable 3.5 mph - N/A   Mostly Cloudy
12:53 AM 46.0°F 42.1°F 86% 29.92 in 10.0 miles South 3.5 mph - N/A   Overcast
1:53 AM 46.0°F 42.1°F 86% 29.91 in 10.0 miles ESE 4.6 mph - N/A   Overcast
2:53 AM 46.0°F 42.1°F 86% 29.90 in 10.0 miles Calm Calm - N/A   Overcast
3:53 AM 46.0°F 41.0°F 83% 29.90 in 10.0 miles Calm Calm - N/A   Overcast
4:53 AM 45.0°F 42.1°F 90% 29.91 in 7.0 miles Calm Calm - 0.01 in Rain Light Rain
5:53 AM 45.0°F 43.0°F 93% 29.88 in 6.0 miles ESE 4.6 mph - 0.05 in Rain Light Rain
6:53 AM 44.6°F 42.8°F 93% 29.85 in 7.0 miles SSE 3.5 mph - N/A Rain Light Rain
7:53 AM 45.0°F 43.0°F 93% 29.88 in 10.0 miles SE 3.5 mph - 0.00 in   Overcast
8:53 AM 46.0°F 42.1°F 86% 29.88 in 10.0 miles SE 4.6 mph - N/A   Overcast
9:53 AM 46.9°F 42.1°F 83% 29.88 in 10.0 miles SSE 6.9 mph - N/A   Overcast
10:53 AM 50.0°F 41.0°F 71% 29.89 in 10.0 miles South 9.2 mph - N/A   Mostly Cloudy
11:49 AM 48.2°F 41.0°F 76% 29.88 in 2.0 miles SW 8.1 mph - 0.03 in Rain Light Rain
11:53 AM 48.0°F 42.1°F 80% 29.90 in 2.5 miles SSW 8.1 mph - 0.04 in Rain Light Rain
12:02 PM 48.2°F 42.8°F 82% 29.88 in 4.0 miles South 9.2 mph - 0.00 in Rain Light Rain
12:53 PM 48.9°F 43.0°F 80% 29.88 in 9.0 miles South 5.8 mph - 0.02 in Rain Light Rain
1:53 PM 50.0°F 42.1°F 74% 29.87 in 10.0 miles South 9.2 mph - 0.00 in   Overcast
2:53 PM 50.0°F 41.0°F 71% 29.87 in 10.0 miles SSE 10.4 mph - 0.00 in   Overcast
3:53 PM 48.9°F 41.0°F 74% 29.87 in 10.0 miles SSE 11.5 mph - 0.01 in Rain Light Rain
4:53 PM 48.0°F 43.0°F 83% 29.87 in 8.0 miles SSW 3.5 mph - 0.00 in Rain Light Rain
4:58 PM 48.2°F 42.8°F 82% 29.86 in 8.0 miles SSW 4.6 mph - 0.00 in Rain Light Rain
5:53 PM 46.0°F 44.1°F 93% 29.88 in 10.0 miles SE 4.6 mph - 0.05 in Rain Light Rain
6:53 PM 46.0°F 41.0°F 83% 29.90 in 10.0 miles SSE 9.2 mph - 0.00 in   Overcast
7:53 PM 46.0°F 41.0°F 83% 29.92 in 10.0 miles SSE 8.1 mph - 0.01 in   Overcast
8:26 PM 46.4°F 41.0°F 81% 29.91 in 10.0 miles SSE 8.1 mph - N/A   Overcast
8:46 PM 44.6°F 39.2°F 81% 29.91 in 10.0 miles SSE 11.5 mph 19.6 mph N/A   Mostly Cloudy
8:53 PM 45.0°F 41.0°F 86% 29.92 in 10.0 miles SSE 10.4 mph - N/A   Mostly Cloudy
9:53 PM 45.0°F 41.0°F 86% 29.94 in 10.0 miles SSE 8.1 mph - 0.00 in   Mostly Cloudy
10:13 PM 44.6°F 41.0°F 87% 29.92 in 9.0 miles SSE 10.4 mph - 0.00 in Rain Light Rain
10:26 PM 44.6°F 39.2°F 81% 29.93 in 10.0 miles SSE 11.5 mph 17.3 mph 0.00 in   Scattered Clouds
10:45 PM 44.6°F 39.2°F 81% 29.93 in 10.0 miles SSE 12.7 mph 18.4 mph 0.00 in   Mostly Cloudy
10:53 PM 44.6°F 39.2°F 81% 29.93 in 10.0 miles SSE 10.4 mph 17.3 mph N/A   Mostly Cloudy
11:24 PM 44.6°F 39.2°F 81% 29.94 in 10.0 miles SE 10.4 mph - N/A   Mostly Cloudy
11:53 PM 45.0°F 39.9°F 82% 29.97 in 10.0 miles SSE 8.1 mph 17.3 mph N/A   Overcast
Moon Phase
Feb. 05 Feb. 10 Feb. 17 Feb. 25 Mar. 04
Sunrise:07:29 AM (PST) Moon Rise:03:24 AM (PST)2/5
Sunset:05:17 PM (PST) Moon Set:12:31 PM (PST)2/5

Copyright © 2014 The Weather Underground, Inc.